Regional Weather Roundup
Issued by NWS Burlington, VT

Home | Current Version | Previous Version | Text Only | Print | Product List | Glossary On
Versions: 1 2 3 4 5 6 7 8 9 10 11 12 13 14 15 16 17 18 19 20 21 22 23 24 25 26 27 28 29 30 31 32 33 34 35 36 37 38 39 40 41 42 43 44 45 46 47 48 49 50
000
ASUS41 KBTV 122030
RWRBTV
VERMONT REGIONAL WEATHER ROUNDUP
NATIONAL WEATHER SERVICE BURLINGTON VT
300 PM EST TUE DEC 12 2017

NOTE: "FAIR" INDICATES FEW OR NO CLOUDS BELOW 12,000 FEET WITH NO
SIGNIFICANT WEATHER AND/OR OBSTRUCTIONS TO VISIBILITY.

* THESE REPORTS ARE NOT UNDER NWS QUALITY CONTROL AND/OR DO NOT
  REPORT WEATHER SUCH AS PRECIPITATION AND FOG.

VTZ001>019-122100-
_____VERMONT_____


CITY           SKY/WX    TMP DP  RH WIND       PRES   REMARKS
BURLINGTON     LGT SNOW  32  29  88 E7        29.41F VSB 1   WCI  26
MONTPELIER     LGT SNOW  27  27 100 CALM      29.45F VSB 1
MORRISVILLE    LGT SNOW  27  26  96 SE5       29.46F FOG     WCI  22
ST. JOHNSBURY*   N/A     28  27  96 MISG      29.45F
LYNDONVILLE*   SNOW      28  27  96 CALM      29.45F VSB 1/2
MIDDLEBURY*    MIX PCPN  34  30  86 S5        29.40F WCI  30
RUTLAND*       LGT SNOW  30  30 100 S10       29.40F FOG     WCI  21
SPRINGFIELD    SNOW      29  27  92 NE3       29.44F VSB 1/2
HIGHGATE*      CLOUDY    31  31  99 CALM      29.42F
NEWPORT*       LGT SNOW  27  26  96 CALM      29.45F VSB 1
BENNINGTON     LGT RAIN  36  32  85 CALM      29.39F FOG
SUTTON*          N/A     27 N/A N/A MISG        N/A
ISLAND POND*     N/A     25 N/A N/A E7          N/A  WCI  17
UNION VILLAGE*   N/A     28 N/A N/A MISG        N/A
MT. MANSFIELD*   N/A     25 N/A N/A SE17G30     N/A  WCI  11

_____LAKE CHAMPLAIN_____


CITY           SKY/WX    TMP DP  RH WIND       PRES   REMARKS
BURTON ISLAND*   N/A     34  32  93 S13         N/A  WCI  25
COLCHESTER RF*   N/A     34  32  93 SE21        N/A  WCI  22
DIAMOND ISL*     N/A     34  34 100 S10         N/A  WCI  26

$$

NYZ007-026>031-035-052-083-087-122100-
_____NORTHERN NEW YORK_____


CITY           SKY/WX    TMP DP  RH WIND       PRES   REMARKS
PLATTSBURGH    CLOUDY    33  30  88 SE5       29.41F WCI  29
SARANAC LAKE   LGT SNOW  30  30 100 W3        29.33S FOG
MASSENA        LGT SNOW  20  18  92 NE7       29.47R VSB 1   WCI  11
OGDENSBURG*    LGT SNOW  22  19  88 N6        29.46R WCI  15
POTSDAM*       MOCLDY    19  18  93 NE7       29.43R VSB 1   WCI  10
STARK FALLS*     N/A     30 N/A N/A SW3         N/A
WATERTOWN      LGT SNOW  24  22  91 W7        29.49S FOG     WCI  16
FT DRUM        FLURRIES  21  19  93 W6        29.45R WCI  14
ALBANY         LGT RAIN  35  33  92 S5        29.42F FOG     WCI  31
GLENS FALLS    SNOW      32  32 100 CALM      29.40F VSB 1/2

$$
NHZ002-005-011-122100-
_____NEW HAMPSHIRE_____


CITY           SKY/WX    TMP DP  RH WIND       PRES   REMARKS
LEBANON        LGT SNOW  28  26  92 NE7       29.45F VSB 3/4 WCI  21
KEENE          FLURRIES  32  30  93 N7        29.40F WCI  26
MT WASHINGTON  SNOW      18  18 100 SE48G55     N/A  VSB 0   WCI  -6
PLYMOUTH       SNOW      25  23  93 CALM      29.50F VSB 1/4
WHITEFIELD     LGT SNOW  32  26  78 NE14G20   29.43F WCI  22

$$

_____REGIONAL QUEBEC LOCATIONS_____


CITY           SKY/WX    TMP DP  RH WIND       PRES   REMARKS
MONTREAL       LGT SNOW  19  16  86 N16       29.46F DRFTSNOWWCI   5
QUEBEC CITY    LGT SNOW  16  12  86 NE26G38   29.63F VSB 3/4 WCI  -3
SHERBROOKE     CLOUDY    30  21  69 SE17G24   29.47F WCI  18

_____REGIONAL ONTARIO LOCATIONS_____


CITY           SKY/WX    TMP DP  RH WIND       PRES   REMARKS
OTTAWA         LGT SNOW  19  16  86 N8        29.47S WCI   9

______KEY______
VSB  - VISIBILITY IN MILES
WCI  - WIND CHILL INDEX
HX   - HEAT INDEX
$$
NNNN



USA.gov is the U.S. government's official web portal to all federal, state and local government web resources and services.